Location: Champs
(48.8539°N, 2.6040°E)
Time: 13:29:22
(UTC+00:00)

NOSS 3-4 (C) - Pass Details

Date: 26 October 2021
Orbit: 860 x 1352 km, 63.4° (Epoch: 05 December)

Event Time Altitude Azimuth Distance (km) Brightness Sun altitude
Exits shadow 05:49:19 - 317° (NW) 3,719 6.0 -6.8°
Reaches altitude 10° 05:51:39 10° 318° (NW) 2,882 5.5 -6.5°
Maximum altitude 05:58:34 88° 233° (SW) 1,161 3.9 -5.4°
Drops below altitude 10° 06:06:21 10° 142° (SE) 3,226 7.1 -4.1°
Sets 06:09:17 0° 142° (SE) 4,246 7.8 -3.7°
